Home > Weather > Pau > Past weeks

Flag for France Weather for the Past 2 Weeks in Pau, France

Now
41 °F

Partly cloudy.


Feels Like: 41 °F
Forecast: 36 / 42 °F
Wind: No wind

Location: Pau Airport

Current Time: Feb 14, 2016 at 10:45:39 PM

Latest Report: Feb 14, 2016 at 10:00 PM


Visibility: N/A

Pressure: 29.62 "Hg

Humidity: 87%

Dew point: 37 °F

Location of PauLocation

Historic Weather in Pau — Graph

°F

Pau Temperature Yesterday

Maximum temperature yesterday: 61 °F (at 11:00 AM)
Minimum temperature yesterday: 48 °F (at 12:00 AM)
Average temperature yesterday: 54 °F

High & Low Weather Summary for the Past Weeks

 TemperatureHumidityPressure
High64 °F (Feb 8, 2:00 PM)100% (Jan 31, 7:00 PM)30.69 "Hg (Jan 31, 7:00 PM)
Low32 °F (Feb 5, 6:30 AM)44% (Feb 4, 3:00 PM)29.39 "Hg (Feb 13, 11:30 PM)
Average49 °F82%30.05 "Hg
* Reported Jan 30 9:00 PM — Feb 14 9:30 PM, Pau, Weather by CustomWeather, © 2016

Note: Actual official high and low records may vary slightly from our data, if they occured in-between our weather recording intervals... More about our weather records

Advertising

Pau Weather History for the Previous 24 Hours

 ConditionsComfort  
Time TempWeatherWind HumidityBarometerVisibility
9:30 PM
Sun, Feb 14
39 °FPartly cloudy.3 mph93%29.62 "HgN/A
9:00 PM39 °FPassing clouds.6 mph93%29.59 "HgN/A
8:30 PM39 °FPassing clouds.5 mph87%29.59 "HgN/A
8:00 PM39 °FLight rain. Mostly cloudy.9 mph93%29.59 "HgN/A
7:30 PM41 °FLight rain. Mostly cloudy.10 mph87%29.59 "HgN/A
7:00 PM43 °FPartly cloudy.9 mph93%29.56 "HgN/A
6:30 PM43 °FDrizzle. Mostly cloudy.8 mph93%29.56 "HgN/A
6:00 PM43 °FPartly sunny.9 mph87%29.56 "HgN/A
5:30 PM45 °FBroken clouds.13 mph81%29.53 "HgN/A
5:00 PM45 °FMostly cloudy.15 mph81%29.53 "HgN/A
4:30 PM45 °FLight rain. Overcast.18 mph87%29.50 "HgN/A
4:00 PM45 °FLight rain. Mostly cloudy.15 mph87%29.47 "HgN/A
3:30 PM46 °FRain. Partly sunny.17 mph87%29.47 "HgN/A
3:00 PM46 °FDrizzle. Mostly cloudy.23 mph87%29.45 "HgN/A
2:30 PM46 °FMostly cloudy.26 mph82%29.45 "HgN/A
2:00 PM46 °FPartly sunny.17 mph87%29.45 "HgN/A
1:30 PM45 °FRain. Partly sunny.30 mph87%29.42 "HgN/A
1:00 PM54 °FPartly sunny.12 mph58%29.39 "HgN/A
12:30 PM55 °FPartly sunny.8 mph59%29.39 "HgN/A
12:00 PM54 °FPartly sunny.6 mph54%29.42 "HgN/A
11:30 AM54 °FPassing clouds.6 mph58%29.42 "HgN/A
11:00 AM52 °FScattered clouds.8 mph58%29.42 "HgN/A
10:30 AM52 °FMostly cloudy.6 mph62%29.45 "HgN/A
10:00 AM52 °FOvercast.5 mph67%29.45 "HgN/A
9:30 AM48 °FSunny.5 mph76%29.45 "Hg10 mi
9:00 AM46 °FScattered clouds.3 mph82%29.47 "HgN/A
8:30 AM46 °FPartly sunny.6 mph82%29.47 "HgN/A
8:00 AM46 °FScattered clouds.12 mph82%29.47 "HgN/A
7:30 AM46 °FPassing clouds.14 mph82%29.47 "HgN/A
7:00 AM46 °FPartly cloudy.14 mph82%29.50 "HgN/A
6:30 AM46 °FPassing clouds.14 mph87%29.50 "HgN/A
6:00 AM46 °FLight rain. Partly cloudy.12 mph93%29.50 "Hg4 mi
5:30 AM48 °FPassing clouds.21 mph82%29.50 "HgN/A
5:00 AM48 °FPassing clouds.15 mph82%29.47 "HgN/A
4:30 AM46 °FPartly cloudy.24 mph82%29.47 "HgN/A
4:00 AM48 °FHeavy rain. Mostly cloudy.22 mph82%29.50 "Hg4 mi
3:30 AM50 °FOvercast.22 mph82%29.47 "HgN/A
3:00 AM50 °FMostly cloudy.23 mph82%29.47 "HgN/A
2:30 AM50 °FMostly cloudy.30 mph82%29.47 "HgN/A
2:00 AM52 °FMostly cloudy.36 mph77%29.45 "HgN/A
1:30 AM54 °FLight rain. Passing clouds.33 mph82%29.42 "Hg6 mi
1:00 AM54 °FPartly cloudy.9 mph82%29.39 "HgN/A
12:30 AM52 °FMostly cloudy.9 mph88%29.39 "HgN/A
12:00 AM50 °FPartly cloudy.8 mph94%29.39 "HgN/A
11:30 PM
Sat, Feb 13
50 °FMostly cloudy.6 mph94%29.39 "HgN/A
10:30 PM50 °FPassing clouds.7 mph94%29.42 "HgN/A
10:00 PM52 °FLight rain. Mostly cloudy.8 mph94%29.45 "HgN/A
Weather by CustomWeather, © 2016

See weather overviewHow to use our weather pages